FW1932 Weather Reports


time (UTC)temp
C
wind
direction
speed
KPH
gust
KPH
rain 1hr
cm
rain 24hr
cm
rain mn
cm
humidity
%
barometer
mb
20260904060042 17 242 0.0 0.0 0.00 0.00 0.00 77 1022.1
20260904054542 17 242 0.0 0.0 0.00 0.00 0.00 78 1022.2
20260904053042 17 242 0.0 0.0 0.00 0.00 0.00 77 1022.2
20260904051540 17 242 0.0 0.0 0.00 0.00 0.00 77 1022.1
20260904050045 17 242 0.0 0.0 0.00 0.00 0.00 77 1022.1
20260904044549 17 242 0.0 0.0 0.00 0.00 0.00 76 1022.2
20260904043041 17 242 0.0 0.0 0.00 0.00 0.00 77 1022.2
20260904041539 17 242 0.0 0.0 0.00 0.00 0.00 77 1022.3
20260904040034 17 242 0.0 0.0 0.00 0.00 0.00 77 1022.6
20260904034531 17 242 0.0 0.0 0.00 0.00 0.00 76 1022.9
20260904033030 17 242 0.0 0.0 0.00 0.00 0.00 76 1022.9
20260904031527 17 242 0.0 0.0 0.00 0.00 0.00 75 1023.0
20260904030027 17 242 0.0 0.0 0.00 0.00 0.00 75 1023.0
20260904024523 18 242 0.0 1.6 0.00 0.00 0.00 74 1023.1
20260904023021 18 242 0.0 1.6 0.00 0.00 0.00 72 1023.2
20260904021521 18 238 0.0 4.8 0.00 0.00 0.00 69 1023.2
20260904020028 18 252 0.0 4.8 0.00 0.00 0.00 73 1023.3
20260904014518 18 245 0.0 1.6 0.00 0.00 0.00 74 1023.5
20260904013017 18 243 0.0 3.2 0.00 0.00 0.00 74 1023.5
20260904011516 18 240 0.0 1.6 0.00 0.00 0.00 75 1023.8
20260904010013 18 240 0.0 1.6 0.00 0.00 0.00 74 1023.8
20260904004512 18 109 0.0 3.2 0.00 0.00 0.00 70 1023.7
20260904003010 18 111 0.0 1.6 0.00 0.00 0.00 71 1023.8
20260904001509 18 111 0.0 0.0 0.00 0.00 0.00 74 1024.1
20260904000006 19 110 0.0 1.6 0.00 0.00 0.00 72 1024.0
20260903234506 19 226 0.0 0.0 0.00 0.00 0.00 70 1024.0
20260903233004 20 226 0.0 0.0 0.00 0.00 0.00 71 1024.1
20260903231611 20 226 0.0 0.0 0.00 0.00 0.00 71 1024.1
20260903230110 20 226 0.0 0.0 0.00 0.00 0.00 67 1024.0
20260903224551 21 226 0.0 1.6 0.00 0.00 0.00 65 1024.1
20260903223102 21 141 0.0 1.6 0.00 0.00 0.00 63 1024.2
20260903221549 21 217 0.0 1.6 0.00 0.00 0.00 61 1024.1
20260903214546 22 182 0.0 0.0 0.00 0.00 0.00 60 1024.1
20260903213046 22 183 0.0 0.0 0.00 0.00 0.00 58 1024.3
20260903211546 22 176 0.0 0.0 0.00 0.00 0.00 58 1024.2
20260903210045 23 176 0.0 0.0 0.00 0.00 0.00 57 1024.3
20260903204546 23 176 0.0 0.0 0.00 0.00 0.00 57 1024.3
20260903203043 23 152 0.0 0.0 0.00 0.00 0.00 57 1024.4
20260903201544 23 146 0.0 1.6 0.00 0.00 0.00 58 1024.3
20260903200048 23 243 0.0 1.6 0.00 0.00 0.00 57 1024.2
20260903194548 23 242 0.0 1.6 0.00 0.00 0.00 56 1024.2
20260903193042 23 240 0.0 3.2 0.00 0.00 0.00 55 1024.1
20260903191554 24 86 0.0 3.2 0.00 0.00 0.00 54 1024.0
20260903190040 24 254 0.0 1.6 0.00 0.00 0.00 53 1024.1
20260903184541 25 254 0.0 1.6 0.00 0.00 0.00 52 1023.7
20260903183101 25 255 0.0 1.6 0.00 0.00 0.00 51 1023.7
20260903181540 25 248 0.0 3.2 0.00 0.00 0.00 51 1023.5
20260903180039 25 245 0.0 3.2 0.00 0.00 0.00 50 1023.4
20260903174538 26 226 1.6 6.4 0.00 0.00 0.00 49 1023.3
20260903173038 26 233 1.6 9.7 0.00 0.00 0.00 48 1023.3
20260903171537 26 234 1.6 6.4 0.00 0.00 0.00 48 1023.3
20260903170038 27 233 0.0 6.4 0.00 0.00 0.00 48 1023.4
20260903164535 27 99 1.6 9.7 0.00 0.00 0.00 46 1023.4
20260903163034 27 243 1.6 9.7 0.00 0.00 0.00 46 1023.2
20260903161546 28 176 6.4 11.3 0.00 0.00 0.00 44 1023.3
20260903160032 28 236 0.0 9.7 0.00 0.00 0.00 44 1023.4
20260903154531 29 222 3.2 6.4 0.00 0.00 0.00 42 1023.4
20260903153030 29 151 3.2 9.7 0.00 0.00 0.00 41 1023.5
20260903151530 29 243 1.6 12.9 0.00 0.00 0.00 42 1023.6
20260903150030 28 224 0.0 11.3 0.00 0.00 0.00 43 1023.4
20260903144529 29 233 0.0 8.0 0.00 0.00 0.00 42 1023.5
20260903143036 29 231 1.6 8.0 0.00 0.00 0.00 39 1023.6
20260903141526 30 95 0.0 8.0 0.00 0.00 0.00 39 1023.7
20260903140024 30 160 1.6 4.8 0.00 0.00 0.00 37 1023.8
20260903134527 29 251 1.6 11.3 0.00 0.00 0.00 37 1023.7
20260903133023 29 237 1.6 9.7 0.00 0.00 0.00 35 1023.8
20260903131523 29 231 1.6 9.7 0.00 0.00 0.00 37 1023.8
20260903130018 29 240 3.2 11.3 0.00 0.00 0.00 39 1023.7
20260903124526 28 245 3.2 12.9 0.00 0.00 0.00 38 1023.8
20260903123015 28 247 3.2 19.3 0.00 0.00 0.00 38 1023.9
20260903121532 28 264 4.8 12.9 0.00 0.00 0.00 41 1024.0
20260903120010 28 238 0.0 9.7 0.00 0.00 0.00 44 1024.3
20260903114509 27 246 8.0 16.1 0.00 0.00 0.00 42 1024.2
20260903113015 27 230 4.8 12.9 0.00 0.00 0.00 43 1024.6
20260903111507 27 231 3.2 11.3 0.00 0.00 0.00 43 1024.8
20260903110006 27 245 1.6 11.3 0.00 0.00 0.00 44 1024.8
20260903104504 26 240 4.8 16.1 0.00 0.00 0.00 44 1025.1
20260903103003 26 254 3.2 17.7 0.00 0.00 0.00 44 1025.0
20260903101559 26 238 0.0 8.0 0.00 0.00 0.00 46 1025.1
20260903100058 26 226 1.6 9.7 0.00 0.00 0.00 46 1025.4
20260903094606 25 245 1.6 6.4 0.00 0.00 0.00 51 1025.4
20260903093054 25 266 3.2 8.0 0.00 0.00 0.00 53 1025.5
20260903091557 24 224 1.6 6.4 0.00 0.00 0.00 55 1025.6
20260903090050 23 240 3.2 8.0 0.00 0.00 0.00 56 1025.5
20260903084548 23 239 0.0 4.8 0.00 0.00 0.00 58 1025.5
20260903083043 22 233 0.0 8.0 0.00 0.00 0.00 61 1025.6
20260903081547 21 231 4.8 9.7 0.00 0.00 0.00 63 1025.3
20260903080040 21 243 0.0 4.8 0.00 0.00 0.00 67 1025.8
20260903074534 20 237 1.6 8.0 0.00 0.00 0.00 71 1025.6
20260903073043 19 238 1.6 4.8 0.00 0.00 0.00 74 1025.4
20260903071529 18 253 0.0 3.2 0.00 0.00 0.00 78 1025.3
20260903070027 17 233 0.0 3.2 0.00 0.00 0.00 80 1025.2
20260903064527 16 271 0.0 1.6 0.00 0.00 0.00 85 1025.4
20260903063025 15 269 0.0 1.6 0.00 0.00 0.00 87 1025.4
20260903061525 15 269 0.0 0.0 0.00 0.00 0.00 88 1025.5